Weather History for Milk River, Alberta

Change the Weather History Date:

Wednesday, April 23, 2014

  Actual Average Record
Temperature  
Mean Temperature 46 °F -  
Max Temperature 55 °F - - ()
Min Temperature 37 °F - - ()
Degree Days  
Heating Degree Days 18    
Moisture  
Dew Point 21 °F    
Average Humidity 41    
Maximum Humidity 81    
Minimum Humidity 10    
Precipitation  
Precipitation 0.01 in - - ()
Sea Level Pressure  
Sea Level Pressure 29.55 in    
Wind  
Wind Speed 21 mph ()    
Max Wind Speed 37 mph    
Max Gust Speed 47 mph    
T = Trace of Precipitation, MM = Missing Value Source: Averaged Metar Reports

Daily Weather History Graph

Daily Weather History Graph

Search for Another Location

Airport:

Trip Planner

Search our weather history database for the weather conditions in past years. The results will help you decide how hot, cold, wet, or windy it might be!

Date:

Astronomy

Apr. 23, 2014 Rise Set
Actual Time 6:21 AM MDT 8:32 PM MDT
Civil Twilight 5:46 AM MDT 9:07 PM MDT
Nautical Twilight 5:03 AM MDT 9:50 PM MDT
Astronomical Twilight 4:15 AM MDT 10:39 PM MDT
Moon 3:27 AM MDT (4/23) 2:15 PM MDT (4/23)
Length of Visible Light 15h 20m
Length of Day
14h 11m
Waning Crescent, 34% of the Moon is Illuminated
Apr 23
Waning Crescent
Apr 29
New
May 6
First Quarter
May 14
Full
May 21
Last Quarter

Hourly Weather History & Observations

Time (MDT) Temp. Windchill Dew Point Humidity Pressure Visibility Wind Dir Wind Speed Gust Speed Precip Events Conditions
12:00 AM 44 °F - 38 °F 74% 29.47 in - West 15.0 mph - -  
12:00 AM 43.9 °F 36.8 °F 38.5 °F 81% 29.47 in - West 15.0 mph 20.7 mph 0.01 in   Unknown
1:00 AM 43.0 °F 36.8 °F 37.4 °F 81% 29.46 in - West 11.5 mph - N/A   Unknown
2:00 AM 41.5 °F 33.2 °F 33.8 °F 74% 29.46 in - WSW 17.3 mph - 0.01 in   Unknown
3:00 AM 40.8 °F 31.4 °F 32.9 °F 73% 29.44 in - West 20.7 mph 27.6 mph N/A   Unknown
4:00 AM 40.5 °F 29.7 °F 29.3 °F 64% 29.47 in - West 26.5 mph 38.0 mph N/A   Unknown
5:00 AM 39.9 °F 28.6 °F 26.1 °F 58% 29.48 in - West 28.8 mph 38.0 mph N/A   Unknown
6:00 AM 39 °F - 22 °F 36% 29.49 in - West 27.6 mph - -  
6:00 AM 38.8 °F 27.3 °F 21.6 °F 50% 29.49 in - West 27.6 mph 35.7 mph N/A   Unknown
7:00 AM 38.1 °F 28.1 °F 19.6 °F 47% 29.54 in - West 19.6 mph 25.3 mph N/A   Unknown
8:00 AM 39.7 °F 28.5 °F 18.9 °F 43% 29.52 in - West 27.6 mph 34.5 mph N/A   Unknown
9:00 AM 44.2 °F 33.6 °F 14.4 °F 30% 29.52 in - West 34.5 mph 47.2 mph N/A   Unknown
10:00 AM 45.7 °F 35.3 °F 13.5 °F 27% 29.53 in - West 36.8 mph 47.2 mph N/A   Unknown
11:00 AM 49.5 °F - 15.3 °F 26% 29.54 in - West 34.5 mph 43.7 mph N/A   Unknown
12:00 PM 52 °F - 12 °F 10% 29.54 in - West 33.4 mph - -  
12:00 PM 51.6 °F - 11.7 °F 20% 29.54 in - West 33.4 mph 44.9 mph N/A   Unknown
1:00 PM 50.9 °F - 12.4 °F 21% 29.55 in - West 32.2 mph 43.7 mph N/A   Unknown
2:00 PM 54.9 °F - 14.2 °F 20% 29.55 in - West 28.8 mph 40.3 mph N/A   Unknown
3:00 PM 54.7 °F - 14.0 °F 20% 29.56 in - West 28.8 mph 39.1 mph N/A   Unknown
4:00 PM 52.7 °F - 16.5 °F 24% 29.57 in - West 28.8 mph 39.1 mph N/A   Unknown
5:00 PM 52.7 °F - 16.9 °F 24% 29.58 in - West 31.1 mph 40.3 mph N/A   Unknown
6:00 PM 51 °F - 19 °F 16% 29.60 in - West 28.8 mph - -  
6:00 PM 51.4 °F - 19.0 °F 28% 29.60 in - West 28.8 mph 36.8 mph N/A   Unknown
7:00 PM 48.6 °F - 15.8 °F 27% 29.63 in - West 31.1 mph 39.1 mph N/A   Unknown
8:00 PM 44.8 °F 36.4 °F 19.0 °F 36% 29.65 in - West 21.9 mph 31.1 mph N/A   Unknown
9:00 PM 40.6 °F 31.4 °F 21.0 °F 46% 29.67 in - WSW 19.6 mph - N/A   Unknown
10:00 PM 38.8 °F 29.4 °F 21.2 °F 49% 29.68 in - WSW 18.4 mph - N/A   Unknown
11:00 PM 37.9 °F 27.9 °F 22.3 °F 53% 29.69 in - West 19.6 mph - N/A   Unknown